Location: Alsip
(41.6689°N, 87.7387°W)
Time: 14:12:37
(UTC+00:00)

Cosmos 2100 Rocket - Pass Details

Date: 14 July 2020
Orbit: 955 x 1002 km, 82.9° (Epoch: 12 August)

Event Time Altitude Azimuth Distance (km) Brightness Sun altitude
Exits shadow 07:44:01 39° 234° (SW) 1,435 4.4 -22.1°
Maximum altitude 07:45:54 51° 282° (WNW) 1,212 4.3 -21.9°
Drops below altitude 10° 07:51:59 10° 358° (N) 2,726 7.2 -21.4°
Sets 07:54:35 0° 3° (N) 3,670 8.1 -21.1°
